Weather History for KBML - February, 2014

Change the Weather History Date:

Friday, February 21, 2014

  Actual Average Record
Temperature  
Mean Temperature 34 °F -  
Max Temperature 37 °F 28 °F 42 °F (2003)
Min Temperature 30 °F 2 °F -23 °F (2015)
Degree Days  
Heating Degree Days 32    
Moisture  
Dew Point 30 °F    
Average Humidity 86    
Maximum Humidity 96    
Minimum Humidity 76    
Precipitation  
Precipitation 0.21 in - - ()
Sea Level Pressure  
Sea Level Pressure 29.97 in    
Wind  
Wind Speed 5 mph (SSE)    
Max Wind Speed 23 mph    
Max Gust Speed 36 mph    
Visibility 7 miles    
Events Rain , Snow    
Averages and records for this station are not official NWS values.
T = Trace of Precipitation, MM = Missing Value Source: NWS Daily Summary

Daily Weather History Graph

Daily Weather History Graph

Search for Another Location

Airport or City:

Trip Planner

Search our weather history database for the weather conditions in past years. The results will help you decide how hot, cold, wet, or windy it might be!

Date:

Astronomy

Feb. 21, 2014 Rise Set
Actual Time 6:35 AM EST 5:21 PM EST
Civil Twilight 6:05 AM EST 5:51 PM EST
Nautical Twilight 5:32 AM EST 6:25 PM EST
Astronomical Twilight 4:58 AM EST 6:58 PM EST
Moon No Moon Rise 9:41 AM EST (2/21)
Length of Visible Light 11h 45m
Length of Day
10h 46m
Waning Gibbous, 61% of the Moon is Illuminated
Feb 21
Waning Gibbous
Feb 22
Last Quarter
Mar 1
New
Mar 8
First Quarter
Mar 16
Full

Hourly Weather History & Observations

Time (EST) Temp. Windchill Dew Point Humidity Pressure Visibility Wind Dir Wind Speed Gust Speed Precip Events Conditions
12:52 AM 33.1 °F - 30.9 °F 92% 30.12 in 10.0 mi Calm Calm - 0.00 in   Mostly Cloudy
1:52 AM 30.9 °F - 30.0 °F 96% 30.12 in 9.0 mi Calm Calm - N/A   Clear
2:52 AM 30.0 °F - 28.9 °F 96% 30.10 in 5.0 mi Calm Calm - N/A   Overcast
3:52 AM 30.9 °F - 30.0 °F 96% 30.09 in 9.0 mi Calm Calm - N/A   Overcast
4:49 AM 32.0 °F - 30.2 °F 93% 30.04 in 2.5 mi Calm Calm - 0.00 in Snow Light Snow
4:52 AM 32.0 °F - 30.9 °F 96% 30.08 in 2.0 mi Calm Calm - 0.00 in Snow Light Snow
5:19 AM 32.0 °F - 30.0 °F 92% 30.04 in 2.5 mi Calm Calm - 0.01 in Snow Light Snow
5:35 AM 33.1 °F - 30.9 °F 92% 30.04 in 3.0 mi Calm Calm - 0.01 in Snow Light Snow
5:49 AM 32.0 °F - 30.2 °F 93% 30.04 in 2.5 mi Calm Calm - 0.01 in Snow Light Snow
5:52 AM 32.0 °F - 30.9 °F 96% 30.08 in 2.0 mi Calm Calm - 0.01 in Snow Light Snow
6:06 AM 33.1 °F 27.7 °F 30.0 °F 89% 30.04 in 1.8 mi SSE 5.8 mph - 0.01 in Snow Light Snow
6:29 AM 33.1 °F 28.7 °F 30.0 °F 89% 30.01 in 2.5 mi SSE 4.6 mph - 0.02 in Snow Light Snow
6:36 AM 34.0 °F - 30.0 °F 85% 30.01 in 7.0 mi Calm Calm - 0.02 in Snow Light Snow
6:52 AM 34.0 °F - 30.0 °F 85% 30.05 in 10.0 mi Calm Calm - 0.02 in   Overcast
7:07 AM 34.0 °F 31.0 °F 30.0 °F 85% 30.02 in 10.0 mi Variable 3.5 mph - N/A   Overcast
7:30 AM 35.1 °F 27.4 °F 30.0 °F 82% 30.05 in 9.0 mi SE 10.4 mph - 0.00 in Rain Light Rain
7:52 AM 34.0 °F 26.6 °F 30.9 °F 89% 30.07 in 2.5 mi SSE 9.2 mph - 0.08 in Rain Rain
8:02 AM 34.0 °F 31.0 °F 30.9 °F 89% 30.03 in 3.0 mi ESE 3.5 mph - 0.03 in Rain Light Rain
8:52 AM 35.1 °F 25.9 °F 30.0 °F 82% 30.06 in 10.0 mi SSE 13.8 mph - 0.04 in Rain Light Rain
9:31 AM 35.1 °F 27.9 °F 30.9 °F 85% 30.01 in 8.0 mi South 9.2 mph - 0.00 in Rain Light Rain
9:52 AM 35.1 °F 29.3 °F 30.0 °F 82% 30.03 in 10.0 mi SE 6.9 mph - 0.00 in   Overcast
10:52 AM 35.1 °F 25.2 °F 30.0 °F 82% 30.01 in 10.0 mi SSE 16.1 mph 24.2 mph 0.00 in Rain Light Rain
11:29 AM 35.1 °F 24.1 °F 30.0 °F 82% 29.95 in 4.0 mi SE 19.6 mph 25.3 mph 0.02 in Rain Rain
11:37 AM 35.1 °F 27.4 °F 30.0 °F 82% 29.94 in 5.0 mi SSE 10.4 mph 23.0 mph 0.02 in Rain Light Rain
11:52 AM 36.0 °F 25.6 °F 30.0 °F 79% 29.97 in 10.0 mi SSE 18.4 mph 26.5 mph 0.02 in Rain Light Rain
12:52 PM 36.0 °F 25.0 °F 30.0 °F 79% 29.94 in 10.0 mi SSE 20.7 mph 35.7 mph 0.00 in   Overcast
1:27 PM 36.0 °F 25.6 °F 30.0 °F 79% 29.88 in 10.0 mi SSE 18.4 mph 27.6 mph N/A   Overcast
1:52 PM 37.0 °F 25.9 °F 30.0 °F 76% 29.88 in 10.0 mi SSE 23.0 mph 34.5 mph N/A   Overcast
2:18 PM 37.0 °F 26.2 °F 30.0 °F 76% 29.83 in 10.0 mi SE 21.9 mph 33.4 mph N/A   Overcast
2:52 PM 37.0 °F 27.0 °F 30.0 °F 76% 29.83 in 10.0 mi SSE 18.4 mph 34.5 mph N/A   Overcast
3:52 PM 36.0 °F 25.3 °F 30.0 °F 79% 29.81 in 10.0 mi SSE 19.6 mph 35.7 mph N/A   Overcast
4:52 PM 36.0 °F 27.5 °F 30.0 °F 79% 29.77 in 10.0 mi South 12.7 mph 26.5 mph N/A   Overcast
5:52 PM 37.0 °F 29.3 °F 30.0 °F 76% 29.73 in 10.0 mi SSE 11.5 mph - 0.00 in   Overcast
6:06 PM 37.0 °F 31.6 °F 30.9 °F 79% 29.70 in 9.0 mi SSE 6.9 mph - 0.01 in Rain Light Rain
6:40 PM 36.0 °F 32.1 °F 32.0 °F 86% 29.72 in 6.0 mi SW 4.6 mph - 0.03 in Rain Light Rain
6:52 PM 36.0 °F - 33.1 °F 89% 29.75 in 8.0 mi Calm Calm - 0.04 in Rain Light Rain